QPF
0.00 0.00 0.00 0.00 0.00 0.00 0.00 0.00 0.00 0.00 0.00 0.00 0.00 0.00 0.00 0.00 0.00 0.00 0.00 0.00 0.00 0.00 0.00 0.00 0.00 0.00 0.00 0.00 0.00 0.13 0.53 0.54 0.55 0.28 0.04 0.05 0.03 0.00 0.01 0.01 0.03 0.04 0.08 0.10
0.00 0.00 0.00 0.00 0.00 0.00 0.00 0.00 0.00 0.00 0.00 0.00 0.00 0.00 0.00 0.00 0.00 0.00 0.00 0.00 0.00 0.00 0.00 0.00 0.00 0.00 0.00 0.00 0.01 0.15 0.04 0.16 0.34 0.28 0.09 0.11 0.08 0.03 0.00 0.03 0.05 0.04 0.06 0.11
0.00 0.00 0.00 0.00 0.00 0.00 0.00 0.00 0.00 0.00 0.00 0.00 0.00 0.00 0.00 0.00 0.00 0.00 0.00 0.00 0.00 0.00 0.00 0.00 0.00 0.00 0.00 0.00 0.00 0.01 0.00 0.01 0.10 0.16 0.12 0.07 0.05 0.01 0.01 0.00 0.00 0.00 0.00 0.00
0.00 0.00 0.00 0.00 0.00 0.00 0.00 0.00 0.00 0.00 0.00 0.00 0.00 0.00 0.00 0.00 0.00 0.00 0.00 0.00 0.00 0.00 0.00 0.00 0.00 0.00 0.00 0.00 0.00 0.00 0.00 0.01 0.04 0.05 0.22 0.10 0.03 0.00 0.00 0.00 0.00 0.00 0.00 0.00
0.00 0.00 0.00 0.00 0.00 0.00 0.00 0.00 0.00 0.00 0.00 0.00 0.00 0.00 0.00 0.00 0.00 0.00 0.00 0.00 0.00 0.00 0.00 0.00 0.00 0.00 0.00 0.00 0.00 0.00 0.00 0.01 0.04 0.15 0.14 0.01 0.00 0.00 0.00 0.00 0.00 0.00 0.00 0.00
0.00 0.00 0.00 0.00 0.00 0.00 0.00 0.00 0.00 0.00 0.00 0.00 0.00 0.00 0.00 0.00 0.00 0.00 0.00 0.00 0.00 0.00 0.00 0.00 0.00 0.00 0.00 0.00 0.00 0.00 0.00 0.00 0.01 0.01 0.00 0.00 0.00 0.00 0.00 0.00 0.00 0.00 0.00 0.02
0.00 0.00 0.00 0.00 0.00 0.00 0.00 0.00 0.00 0.00 0.00 0.00 0.00 0.00 0.00 0.00 0.00 0.00 0.00 0.00 0.00 0.00 0.00 0.00 0.00 0.00 0.00 0.00 0.00 0.00 0.00 0.00 0.00 0.00 0.00 0.00 0.00 0.00 0.00 0.00 0.00 0.00 0.00 0.02
0.00 0.00 0.00 0.00 0.00 0.00 0.00 0.00 0.00 0.00 0.00 0.00 0.00 0.00 0.00 0.00 0.00 0.00 0.00 0.00 0.00 0.00 0.00 0.00 0.00 0.00 0.00 0.00 0.00 0.00 0.00 0.00 0.00 0.00 0.00 0.00 0.00 0.00 0.00 0.00 0.00 0.00 0.00 0.00
0.00 0.00 0.00 0.00 0.00 0.00 0.00 0.00 0.00 0.00 0.00 0.00 0.00 0.00 0.00 0.00 0.00 0.00 0.00 0.00 0.00 0.00 0.00 0.00 0.00 0.00 0.00 0.00 0.00 0.00 0.00 0.00 0.00 0.00 0.00 0.00 0.00 0.00 0.00 0.00 0.00 0.00 0.00 0.00
0.00 0.00 0.00 0.00 0.00 0.00 0.00 0.00 0.00 0.00 0.00 0.00 0.00 0.00 0.00 0.00 0.00 0.00 0.00 0.00 0.00 0.00 0.00 0.00 0.00 0.00 0.00 0.00 0.00 0.00 0.00 0.00 0.00 0.00 0.00 0.00 0.00 0.00 0.00 0.00 0.00 0.00 0.00 0.00
0.00 0.00 0.00 0.00 0.00 0.00 0.00 0.00 0.00 0.00 0.00 0.00 0.00 0.00 0.00 0.00 0.00 0.00 0.00 0.00 0.00 0.00 0.00 0.00 0.00 0.00 0.00 0.00 0.00 0.00 0.00 0.00 0.00 0.00 0.00 0.00 0.00 0.00 0.00 0.00 0.00 0.00 0.00 0.00
0.00 0.00 0.00 0.00 0.00 0.00 0.00 0.00 0.00 0.00 0.00 0.00 0.00 0.00 0.00 0.00 0.00 0.00 0.00 0.00 0.00 0.00 0.00 0.00 0.00 0.00 0.00 0.00 0.00 0.00 0.00 0.00 0.00 0.00 0.00 0.00 0.00 0.00 0.00 0.00 0.00 0.00 0.00 0.00
0.00 0.00 0.00 0.00 0.00 0.00 0.00 0.00 0.00 0.00 0.00 0.00 0.00 0.00 0.00 0.00 0.00 0.00 0.00 0.00 0.00 0.00 0.00 0.00 0.00 0.00 0.00 0.00 0.00 0.00 0.00 0.00 0.00 0.00 0.00 0.00 0.00 0.00 0.00 0.00 0.00 0.00 0.00 0.00
0.00 0.00 0.00 0.00 0.00 0.00 0.00 0.00 0.00 0.00 0.00 0.00 0.00 0.00 0.00 0.00 0.00 0.00 0.00 0.00 0.00 0.00 0.00 0.00 0.00 0.00 0.00 0.00 0.00 0.00 0.00 0.00 0.00 0.00 0.00 0.00 0.00 0.00 0.00 0.00 0.00 0.00 0.00 0.00
0.00 0.00 0.00 0.00 0.00 0.00 0.00 0.00 0.00 0.00 0.00 0.00 0.00 0.00 0.00 0.00 0.00 0.00 0.00 0.00 0.00 0.00 0.00 0.00 0.00 0.00 0.00 0.00 0.00 0.00 0.00 0.00 0.00 0.00 0.00 0.00 0.00 0.00 0.00 0.00 0.00 0.00 0.00 0.00
0.00 0.00 0.00 0.00 0.00 0.00 0.00 0.00 0.00 0.00 0.00 0.00 0.00 0.00 0.00 0.00 0.00 0.00 0.00 0.00 0.00 0.00 0.00 0.00 0.00 0.00 0.00 0.00 0.00 0.00 0.00 0.00 0.00 0.00 0.00 0.00 0.00 0.00 0.00 0.00 0.00 0.00 0.00 0.00
0.00 0.00 0.00 0.00 0.00 0.00 0.00 0.00 0.00 0.00 0.00 0.00 0.00 0.00 0.00 0.00 0.00 0.00 0.00 0.00 0.00 0.00 0.00 0.00 0.00 0.00 0.00 0.00 0.00 0.00 0.00 0.00 0.00 0.00 0.00 0.00 0.00 0.00 0.00 0.00 0.00 0.00 0.00 0.00
0.00 0.00 0.00 0.00 0.00 0.00 0.00 0.00 0.00 0.00 0.00 0.00 0.00 0.00 0.00 0.00 0.00 0.00 0.00 0.00 0.00 0.00 0.00 0.00 0.00 0.00 0.00 0.00 0.00 0.00 0.00 0.00 0.00 0.01 0.01 0.01 0.00 0.00 0.00 0.00 0.00 0.00 0.00 0.00
0.00 0.00 0.00 0.00 0.00 0.00 0.00 0.00 0.00 0.00 0.00 0.00 0.00 0.00 0.00 0.00 0.00 0.00 0.00 0.00 0.00 0.00 0.00 0.00 0.00 0.00 0.00 0.00 0.00 0.00 0.00 0.00 0.01 0.02 0.02 0.01 0.02 0.06 0.02 0.00 0.00 0.00 0.00 0.00
0.00 0.00 0.00 0.00 0.00 0.00 0.00 0.00 0.00 0.00 0.00 0.00 0.00 0.00 0.00 0.00 0.00 0.00 0.00 0.00 0.00 0.00 0.00 0.00 0.00 0.01 0.00 0.00 0.00 0.00 0.01 0.00 0.01 0.03 0.01 0.00 0.02 0.05 0.03 0.00 0.00 0.00 0.00 0.00
0.00 0.00 0.00 0.00 0.00 0.00 0.00 0.00 0.00 0.00 0.00 0.00 0.00 0.00 0.00 0.00 0.00 0.00 0.00 0.00 0.00 0.00 0.00 0.00 0.00 0.00 0.00 0.00 0.00 0.00 0.00 0.00 0.00 0.00 0.00 0.00 0.00 0.01 0.00 0.00 0.00 0.00 0.00 0.00
0.00 0.00 0.00 0.00 0.00 0.00 0.00 0.00 0.00 0.00 0.00 0.00 0.00 0.00 0.00 0.00 0.00 0.00 0.00 0.00 0.00 0.00 0.00 0.00 0.00 0.00 0.00 0.00 0.00 0.01 0.00 0.00 0.00 0.00 0.00 0.00 0.00 0.00 0.00 0.00 0.00 0.01 0.00 0.00
0.00 0.00 0.00 0.00 0.00 0.00 0.00 0.01 0.00 0.00 0.00 0.00 0.00 0.00 0.00 0.00 0.00 0.00 0.00 0.00 0.00 0.00 0.00 0.00 0.00 0.00 0.00 0.00 0.00 0.00 0.01 0.00 0.00 0.00 0.00 0.00 0.00 0.00 0.00 0.00 0.00 0.01 0.01 0.01
0.00 0.00 0.00 0.00 0.00 0.00 0.00 0.00 0.00 0.00 0.00 0.00 0.00 0.00 0.00 0.00 0.00 0.00 0.00 0.00 0.00 0.00 0.00 0.00 0.01 0.02 0.01 0.00 0.00 0.00 0.00 0.00 0.00 0.00 0.00 0.00 0.00 0.00 0.00 0.00 0.00 0.00 0.00 0.00
0.00 0.00 0.00 0.00 0.00 0.00 0.00 0.00 0.00 0.00 0.00 0.00 0.00 0.00 0.00 0.00 0.00 0.00 0.00 0.00 0.00 0.00 0.01 0.02 0.01 0.01 0.00 0.00 0.00 0.00 0.00 0.00 0.00 0.00 0.00 0.00 0.00 0.00 0.00 0.00 0.00 0.00 0.00 0.00
0.00 0.01 0.00 0.04 0.03 0.02 0.04 0.00 0.00 0.00 0.00 0.00 0.00 0.00 0.00 0.00 0.00 0.00 0.00 0.00 0.00 0.00 0.00 0.00 0.00 0.00 0.00 0.00 0.00 0.00 0.00 0.00 0.00 0.00 0.00 0.00 0.00 0.00 0.00 0.00 0.00 0.00 0.00 0.00
MSLP
1004.02 1002.92 1001.68 1000.92 1000.99 1001.12 1001.12 1000.73 1000.32 1000.25 1000.68 1001.24 1000.13 1000.38 1000.20 1000.82 1001.52 1002.17 1003.37 1004.77 1005.57 1006.26 1006.89 1007.83 1008.38 1008.85 1009.21 1009.49 1010.07 1010.83 1012.08 1012.59 1013.56 1012.89 1012.51 1012.33 1012.68 1012.73 1012.83 1013.20 1013.10 1013.53 1013.99 1014.14
1003.49 1002.45 1001.42 1002.15 1002.49 1002.17 1001.61 1001.12 1000.53 1000.40 1000.99 1001.24 1000.37 999.91 999.91 1000.10 1000.99 1001.49 1002.66 1003.98 1005.08 1005.77 1006.79 1007.90 1008.62 1009.15 1009.70 1009.98 1010.40 1011.46 1012.51 1012.93 1013.52 1013.76 1012.94 1012.54 1012.78 1012.54 1012.56 1012.91 1013.59 1013.79 1013.83 1013.88
1002.33 1001.90 1002.67 1002.99 1002.57 1002.22 1001.51 1001.03 1000.49 1000.81 1000.70 1000.58 1000.17 999.63 999.45 999.80 1000.78 1001.48 1002.10 1002.74 1004.19 1004.99 1006.40 1007.80 1008.68 1009.22 1009.69 1010.10 1010.63 1011.59 1012.23 1012.42 1012.77 1013.09 1012.84 1012.83 1012.70 1012.81 1012.69 1012.41 1012.74 1013.16 1013.45 1013.60
1002.37 1001.93 1002.73 1002.77 1002.32 1002.10 1001.09 1001.02 1001.45 1001.27 1000.85 999.57 999.92 998.95 998.78 999.16 999.86 1000.86 1001.75 1002.51 1003.16 1004.62 1005.99 1007.35 1008.52 1009.29 1009.75 1010.34 1010.86 1011.37 1011.78 1012.16 1012.41 1012.67 1012.87 1012.96 1012.55 1012.33 1012.75 1012.76 1012.87 1013.27 1013.26 1013.40
1001.86 1002.31 1002.34 1002.37 1001.94 1002.19 1001.32 1001.79 1001.76 1001.40 1000.87 1000.08 999.45 999.19 998.10 998.99 999.40 999.74 1000.81 1001.93 1002.85 1004.06 1005.69 1006.91 1008.24 1009.20 1009.74 1010.23 1010.78 1011.38 1011.76 1012.23 1012.57 1012.82 1013.03 1012.61 1012.82 1012.59 1012.63 1012.80 1012.92 1012.77 1012.70 1012.82
1002.09 1002.51 1002.37 1002.03 1002.19 1002.41 1001.98 1002.24 1001.80 1001.40 1000.59 999.44 999.02 998.94 998.37 998.26 999.36 999.94 1000.84 1002.09 1002.69 1003.76 1005.48 1006.73 1007.92 1009.37 1009.87 1010.38 1011.08 1011.40 1012.00 1012.63 1012.96 1013.08 1013.25 1013.27 1013.27 1013.23 1012.87 1013.09 1012.63 1012.55 1012.10 1012.34
1002.05 1001.89 1002.18 1002.24 1001.94 1002.22 1002.24 1001.74 1000.84 1000.18 999.23 998.39 998.86 999.18 998.79 998.98 999.62 1000.45 1001.07 1001.83 1002.77 1003.67 1005.29 1006.56 1007.78 1009.21 1009.96 1010.40 1010.98 1011.58 1012.01 1012.79 1013.04 1013.18 1013.45 1013.65 1013.69 1013.54 1013.33 1013.01 1012.84 1012.75 1012.73 1012.83
1000.79 1000.61 1001.12 1001.79 1001.76 1001.30 1001.76 1001.49 1000.49 999.43 998.64 998.91 999.48 998.66 998.82 999.56 999.98 1000.65 1001.60 1002.03 1002.74 1003.72 1005.01 1006.13 1007.36 1008.58 1009.61 1010.32 1010.81 1011.37 1012.04 1012.71 1013.02 1013.15 1013.54 1013.81 1013.59 1013.34 1012.96 1013.35 1013.37 1012.98 1013.38 1013.46
1000.17 1000.18 1000.98 1001.46 1001.47 1001.74 1001.08 1001.05 1000.95 1000.46 999.93 999.36 998.69 998.19 998.59 999.20 999.67 1000.24 1001.34 1002.22 1002.82 1003.73 1004.65 1005.62 1006.65 1008.08 1009.22 1010.02 1010.62 1011.06 1011.80 1012.66 1012.70 1013.17 1013.65 1013.80 1013.83 1013.69 1013.75 1013.78 1013.62 1013.49 1013.80 1013.88
1000.56 1000.55 1000.72 1001.39 1001.75 1001.52 1001.11 1000.95 1000.87 1000.59 1000.06 999.36 998.38 998.32 998.23 999.12 999.31 1000.31 1001.72 1002.41 1003.25 1004.02 1004.76 1005.73 1006.73 1007.87 1008.76 1009.64 1010.44 1011.07 1011.81 1012.28 1012.60 1013.07 1013.45 1013.55 1013.72 1013.81 1013.97 1014.16 1013.77 1014.16 1014.39 1014.56
1001.15 1001.43 1000.55 1001.33 1001.26 1000.34 1000.95 1001.10 1000.85 1000.07 999.68 999.40 999.00 999.67 1000.13 999.66 999.78 1000.01 1001.27 1002.52 1003.67 1004.26 1005.15 1005.95 1006.94 1007.99 1008.72 1009.60 1010.30 1010.89 1011.57 1012.19 1012.48 1012.69 1013.13 1013.45 1013.58 1013.76 1014.26 1014.18 1013.99 1014.39 1014.84 1014.84
1001.34 1001.22 1000.88 1000.41 999.98 1000.31 1000.04 1000.05 1000.28 1000.02 1000.07 999.86 999.44 999.05 999.30 999.24 999.82 1000.11 1001.18 1002.74 1003.77 1004.47 1005.23 1006.12 1006.93 1007.89 1008.55 1009.26 1010.00 1010.74 1011.40 1011.93 1012.29 1012.66 1013.15 1013.55 1013.67 1013.96 1014.35 1014.23 1014.36 1014.67 1015.02 1014.95
1001.52 1001.63 1001.07 1000.72 1000.08 1000.42 1000.46 1000.19 1000.39 1000.36 1000.52 1000.00 999.33 999.03 999.55 999.45 1000.04 1000.57 1001.34 1003.04 1004.28 1004.94 1005.73 1006.33 1007.18 1008.06 1008.84 1009.80 1010.41 1010.71 1011.13 1011.59 1012.07 1012.71 1013.07 1013.35 1013.46 1014.30 1014.79 1014.60 1014.87 1014.85 1014.90 1014.97
1002.38 1001.77 1001.21 999.81 1000.60 1000.05 999.93 1000.14 1000.06 1000.27 1000.14 999.82 999.38 999.15 999.12 998.80 999.54 1000.94 1001.74 1003.60 1004.61 1005.40 1006.01 1006.73 1007.55 1008.40 1009.57 1010.23 1010.77 1010.77 1010.79 1011.34 1011.91 1012.35 1012.75 1013.10 1013.45 1014.11 1015.02 1015.07 1015.05 1015.03 1015.28 1015.30
1003.17 1002.48 1001.70 1000.90 1000.29 999.92 999.38 999.28 999.46 999.73 1000.06 999.76 999.12 1001.44 1000.43 999.81 1000.79 1001.11 1002.13 1004.04 1004.90 1005.74 1006.17 1006.88 1007.75 1008.75 1009.59 1010.18 1010.40 1010.45 1010.77 1011.23 1011.77 1012.15 1012.50 1012.97 1013.33 1014.14 1015.02 1015.07 1015.47 1015.60 1015.65 1015.74
1003.37 1002.92 1002.42 1001.00 1000.30 1000.01 999.65 999.54 999.59 999.26 999.61 999.51 999.04 999.33 999.37 1000.41 1000.96 1001.61 1002.77 1004.19 1005.09 1005.80 1006.23 1006.99 1007.77 1008.75 1009.39 1010.05 1010.01 1010.31 1010.76 1011.35 1011.85 1012.10 1012.29 1012.75 1013.29 1014.02 1015.07 1015.11 1015.78 1015.97 1016.14 1016.23
1003.63 1003.36 1002.74 1001.59 1000.78 999.95 999.76 999.48 999.21 999.15 999.24 999.09 999.03 999.66 1000.19 1000.61 1001.66 1002.68 1003.28 1004.08 1005.03 1005.82 1006.35 1006.92 1007.70 1008.60 1009.15 1009.40 1009.62 1010.16 1010.75 1011.29 1011.78 1012.01 1012.11 1012.87 1013.37 1014.12 1014.95 1015.09 1015.84 1016.30 1016.65 1016.71
1004.93 1004.23 1003.47 1002.14 1001.22 999.92 999.29 999.05 999.07 999.08 999.11 999.15 999.49 999.98 1001.39 1002.33 1002.91 1003.80 1004.24 1004.17 1005.01 1005.81 1006.46 1007.17 1007.77 1008.54 1008.92 1009.10 1009.56 1010.15 1010.74 1011.37 1011.76 1012.26 1012.38 1013.06 1013.45 1014.12 1014.76 1015.11 1015.98 1016.61 1016.87 1017.12
1005.44 1005.18 1003.86 1003.15 1001.71 1000.62 999.64 999.92 999.93 999.93 1000.01 999.89 999.90 1000.27 1001.34 1002.75 1003.51 1005.19 1005.76 1005.23 1005.48 1006.03 1006.92 1007.87 1008.27 1008.89 1009.49 1009.87 1010.45 1010.92 1011.23 1011.52 1012.15 1012.82 1012.99 1013.45 1013.53 1014.08 1014.72 1015.12 1015.97 1016.59 1017.05 1017.32
1005.01 1005.61 1005.19 1003.55 1002.35 1001.24 1000.26 999.96 1000.38 1001.04 1001.20 1000.91 1000.69 1001.36 1001.94 1002.78 1003.85 1006.42 1007.55 1007.50 1008.07 1008.50 1008.58 1009.57 1010.25 1010.87 1011.61 1011.95 1012.24 1012.24 1012.51 1012.84 1013.39 1013.69 1013.97 1013.99 1014.22 1014.49 1014.94 1015.36 1016.07 1016.63 1017.12 1017.34
1004.29 1004.72 1004.60 1004.04 1003.06 1002.08 1002.03 1001.58 1001.97 1002.05 1002.90 1002.90 1002.96 1003.49 1003.99 1004.95 1006.89 1008.17 1008.90 1009.45 1009.97 1010.43 1010.82 1011.20 1011.45 1012.00 1013.03 1013.00 1012.84 1013.22 1013.62 1014.26 1014.72 1014.82 1014.95 1015.38 1014.79 1015.25 1015.46 1015.82 1016.21 1016.76 1017.24 1017.60
1003.91 1004.27 1004.18 1004.11 1003.34 1002.55 1002.17 1002.92 1003.15 1004.09 1004.49 1004.77 1005.09 1005.68 1006.38 1007.58 1008.83 1009.74 1010.41 1010.97 1011.24 1011.44 1011.85 1011.81 1012.43 1013.39 1013.91 1014.02 1013.80 1014.18 1014.85 1015.50 1015.66 1016.09 1016.21 1016.46 1016.19 1016.28 1016.49 1016.73 1017.14 1017.33 1017.62 1018.13
1003.61 1003.62 1003.65 1003.39 1003.15 1003.75 1003.59 1004.20 1005.17 1005.41 1005.62 1006.25 1006.43 1006.70 1007.23 1008.11 1009.38 1010.47 1011.06 1011.78 1012.47 1012.73 1012.89 1013.24 1013.66 1014.28 1014.73 1015.11 1015.12 1015.70 1016.07 1016.20 1016.32 1016.70 1017.30 1017.15 1017.27 1017.44 1017.77 1018.01 1018.41 1018.72 1018.74 1019.26
1003.74 1003.86 1004.34 1003.86 1003.62 1004.16 1004.82 1005.44 1005.74 1006.25 1006.69 1007.20 1007.45 1007.47 1007.59 1008.37 1009.81 1010.85 1011.50 1012.62 1013.08 1013.22 1013.50 1013.75 1013.99 1014.70 1015.40 1015.73 1015.91 1016.17 1016.36 1016.43 1016.69 1017.46 1018.00 1017.88 1018.10 1018.50 1018.85 1019.07 1019.33 1019.65 1019.96 1020.48
1004.76 1005.14 1004.59 1004.51 1004.54 1005.21 1005.70 1006.25 1006.61 1007.20 1007.73 1007.96 1008.04 1008.10 1008.34 1008.93 1010.02 1011.08 1012.05 1012.87 1013.35 1013.55 1013.64 1013.78 1014.44 1015.15 1015.81 1015.97 1016.25 1016.58 1016.79 1016.91 1017.32 1017.95 1018.31 1018.45 1018.92 1019.50 1019.96 1020.49 1020.56 1020.74 1021.10 1021.23
1005.52 1005.53 1005.85 1005.39 1006.44 1006.46 1006.76 1007.16 1007.39 1007.22 1007.59 1008.17 1008.13 1008.48 1008.72 1009.43 1010.11 1010.97 1011.88 1012.47 1012.79 1013.38 1013.95 1014.37 1014.92 1015.35 1015.70 1016.15 1016.62 1016.90 1017.03 1017.17 1017.43 1017.82 1018.03 1018.41 1019.00 1019.58 1020.09 1020.54 1021.10 1021.81 1022.18 1022.12
Thickness
5833 5824 5823 5845 5851 5846 5842 5837 5835 5850 5860 5843 5851 5848 5859 5865 5859 5851 5843 5833 5828 5823 5827 5822 5816 5813 5808 5804 5793 5782 5759 5756 5754 5750 5766 5771 5766 5768 5767 5763 5762 5757 5751 5748
5820 5814 5845 5843 5838 5833 5834 5829 5833 5851 5854 5844 5846 5847 5862 5866 5859 5858 5847 5837 5829 5827 5822 5815 5810 5808 5801 5797 5790 5775 5765 5761 5752 5743 5763 5769 5767 5769 5769 5764 5756 5752 5749 5746
5817 5829 5836 5826 5826 5822 5831 5828 5836 5830 5847 5854 5846 5839 5850 5863 5860 5857 5855 5854 5841 5833 5820 5811 5805 5802 5799 5793 5787 5774 5766 5763 5762 5760 5765 5766 5768 5765 5764 5766 5762 5756 5750 5746
5821 5841 5824 5820 5820 5830 5820 5846 5836 5830 5827 5823 5852 5814 5846 5858 5852 5849 5848 5847 5844 5833 5826 5816 5804 5797 5792 5790 5787 5778 5774 5770 5769 5768 5764 5761 5761 5759 5759 5759 5759 5752 5750 5747
5816 5817 5817 5812 5824 5833 5827 5841 5832 5832 5826 5831 5838 5824 5852 5859 5842 5853 5850 5846 5844 5837 5825 5815 5805 5798 5793 5791 5785 5779 5775 5771 5768 5766 5762 5763 5758 5760 5761 5759 5755 5755 5752 5749
5821 5837 5829 5828 5833 5832 5840 5826 5828 5831 5830 5810 5837 5831 5835 5850 5842 5847 5846 5842 5842 5836 5824 5816 5810 5797 5792 5789 5782 5778 5771 5766 5763 5762 5759 5756 5754 5752 5755 5752 5753 5752 5756 5752
5810 5816 5829 5834 5819 5830 5825 5815 5796 5798 5809 5812 5840 5822 5833 5853 5851 5845 5840 5839 5838 5835 5822 5813 5804 5792 5787 5783 5779 5774 5770 5761 5760 5758 5755 5753 5752 5752 5751 5752 5751 5748 5747 5745
5795 5793 5821 5832 5821 5816 5814 5816 5803 5783 5802 5805 5829 5809 5828 5851 5855 5850 5842 5841 5838 5830 5823 5815 5806 5797 5788 5782 5777 5773 5767 5759 5759 5758 5753 5752 5753 5753 5755 5750 5747 5748 5741 5739
5805 5804 5829 5828 5833 5827 5816 5803 5833 5809 5823 5811 5830 5845 5853 5851 5847 5844 5837 5833 5830 5826 5822 5816 5809 5798 5788 5781 5775 5772 5766 5757 5760 5756 5752 5751 5750 5750 5748 5746 5746 5743 5739 5736
5817 5790 5821 5820 5827 5828 5821 5834 5799 5808 5774 5775 5819 5823 5824 5828 5836 5833 5825 5825 5823 5823 5819 5813 5806 5796 5788 5781 5775 5771 5764 5759 5758 5755 5753 5753 5751 5750 5747 5744 5744 5737 5733 5729
5816 5799 5806 5811 5802 5809 5807 5800 5810 5823 5821 5789 5783 5789 5804 5827 5838 5836 5830 5826 5819 5818 5813 5808 5801 5793 5785 5777 5771 5766 5762 5757 5754 5755 5754 5751 5751 5749 5744 5743 5743 5735 5729 5727
5814 5802 5783 5800 5833 5832 5827 5817 5815 5795 5790 5811 5807 5812 5843 5846 5841 5842 5833 5825 5822 5819 5814 5808 5801 5792 5782 5772 5766 5761 5758 5755 5754 5754 5751 5749 5749 5746 5742 5742 5738 5733 5727 5727
5808 5787 5771 5781 5812 5815 5802 5814 5815 5814 5809 5792 5772 5808 5828 5841 5837 5836 5830 5822 5815 5813 5809 5805 5798 5787 5777 5765 5757 5757 5756 5756 5755 5751 5750 5749 5748 5741 5736 5736 5732 5732 5729 5726
5798 5790 5781 5788 5775 5803 5791 5801 5812 5805 5790 5797 5809 5824 5835 5840 5834 5826 5827 5815 5810 5806 5804 5800 5792 5783 5769 5758 5750 5754 5758 5760 5756 5754 5751 5748 5746 5742 5733 5731 5730 5730 5726 5723
5783 5764 5785 5797 5806 5809 5812 5811 5812 5801 5802 5792 5815 5769 5794 5818 5816 5823 5825 5810 5803 5798 5800 5796 5788 5778 5769 5762 5756 5762 5762 5760 5757 5753 5751 5747 5746 5740 5731 5729 5724 5724 5721 5719
5780 5758 5773 5781 5803 5804 5796 5806 5806 5813 5809 5809 5820 5811 5838 5826 5827 5819 5813 5804 5798 5795 5797 5794 5789 5779 5772 5765 5766 5764 5762 5757 5754 5751 5751 5749 5745 5738 5728 5727 5721 5718 5715 5713
5762 5761 5758 5754 5791 5797 5776 5795 5804 5810 5817 5817 5801 5812 5819 5813 5809 5806 5806 5804 5797 5794 5794 5792 5787 5780 5776 5773 5773 5767 5763 5759 5753 5752 5754 5747 5741 5733 5727 5726 5719 5713 5708 5706
5742 5749 5757 5755 5775 5745 5798 5821 5818 5808 5814 5823 5820 5821 5805 5801 5804 5802 5803 5804 5799 5795 5793 5789 5787 5780 5779 5779 5774 5769 5764 5757 5753 5748 5748 5743 5739 5731 5726 5722 5713 5706 5703 5699
5746 5740 5743 5734 5749 5774 5793 5795 5794 5790 5790 5816 5814 5816 5810 5803 5801 5783 5790 5801 5799 5796 5790 5784 5784 5778 5773 5770 5765 5760 5756 5754 5748 5741 5739 5735 5734 5728 5722 5717 5709 5703 5697 5694
5743 5737 5728 5740 5729 5726 5783 5806 5807 5798 5759 5807 5809 5802 5803 5803 5783 5766 5770 5779 5773 5772 5775 5765 5761 5757 5750 5748 5748 5746 5742 5739 5731 5730 5728 5729 5726 5721 5717 5712 5705 5699 5693 5690
5722 5723 5716 5725 5724 5746 5776 5784 5792 5748 5757 5784 5788 5784 5784 5776 5765 5760 5760 5756 5755 5751 5749 5749 5748 5742 5736 5739 5740 5733 5729 5722 5719 5718 5717 5713 5718 5713 5710 5704 5700 5694 5688 5683
5713 5709 5713 5721 5716 5714 5778 5769 5752 5757 5766 5767 5767 5763 5757 5750 5745 5742 5739 5736 5738 5737 5736 5740 5735 5727 5725 5726 5727 5721 5713 5707 5706 5702 5701 5699 5700 5698 5696 5692 5687 5684 5679 5673
5708 5727 5723 5735 5736 5747 5759 5751 5751 5755 5753 5750 5752 5754 5752 5745 5737 5731 5729 5728 5720 5718 5719 5720 5718 5715 5714 5711 5712 5702 5698 5696 5694 5692 5684 5685 5685 5683 5680 5676 5670 5666 5663 5656
5723 5733 5719 5726 5740 5736 5738 5741 5744 5745 5743 5742 5742 5745 5747 5740 5731 5723 5722 5712 5710 5711 5710 5712 5712 5705 5700 5700 5698 5695 5693 5692 5688 5679 5673 5673 5672 5668 5665 5661 5658 5653 5648 5641
5705 5709 5715 5718 5725 5724 5723 5725 5730 5728 5728 5728 5732 5733 5733 5731 5723 5716 5709 5705 5703 5704 5706 5707 5701 5695 5690 5692 5690 5687 5685 5682 5675 5668 5664 5661 5658 5652 5646 5641 5640 5638 5634 5632
5696 5693 5691 5698 5694 5702 5701 5713 5717 5720 5721 5719 5722 5720 5723 5721 5716 5712 5706 5706 5706 5702 5698 5695 5691 5689 5687 5684 5680 5677 5676 5674 5669 5663 5661 5658 5651 5644 5638 5633 5627 5621 5618 5617